Tracking 28531 objects as of 27-Feb-2024
HD Live streaming from Space Station
objects crossing your sky now

COSMOS 2447 (GLONASS)

Track COSMOS 2447 (GLONASS) now!
COSMOS 2447 (GLONASS) is classified as:


NORAD ID: 33466
Int'l Code: 2008-067A
Perigee: 19,117.5 km
Apogee: 19,155.6 km
Inclination: 64.4 °
Period: 675.7 minutes
Semi major axis: 25507 km
RCS: 3.1623 m2 (large)
Launch date: December 25, 2008
Source: Commonwealth of Independent States (former USSR) (CIS)
Launch site: TYURATAM MISSILE AND SPACE COMPLEX (TTMTR)

This is satellite part of Glonass family.
Your satellite tracking list
Your tracking list is empty




NASA's NSSDC Master Catalog

Two Line Element Set (TLE):
1 33466U 08067A   24058.37717610  .00000028  00000-0  00000-0 0  9994
2 33466  64.3569  98.3670 0007479 242.2762 117.7244  2.13108016118055
Source of the keplerian elements: AFSPC